Weather History for Fort Payne, AL

Change the Weather History Date:

Thursday, December 13, 2012

  Actual Average (KRMG) Record (KRMG)
Temperature  
Mean Temperature 42 °F 43 °F  
Max Temperature 57 °F 53 °F 68 °F (2007)
Min Temperature 28 °F 33 °F 19 °F (2010)
Degree Days  
Heating Degree Days 22 22  
Month to date heating degree days 271  
Since 1 July heating degree days 878  
Moisture  
Dew Point 27 °F    
Average Humidity 70    
Maximum Humidity 93    
Minimum Humidity 20    
Precipitation  
Precipitation 0.00 in 0.16 in 1.06 in (2002)
Month to date precipitation 2.32  
Year to date precipitation 49.86  
Sea Level Pressure  
Sea Level Pressure 30.31 in    
Wind  
Wind Speed 0 mph (North)    
Max Wind Speed 0 mph    
Max Gust Speed -    
Visibility 10 miles    
Events      
T = Trace of Precipitation, MM = Missing Value Source: NWS Daily Summary

Daily Weather History Graph

Daily Weather History Graph

Search for Another Location

Airport:

Trip Planner

Search our weather history database for the weather conditions in past years. The results will help you decide how hot, cold, wet, or windy it might be!

Date:

Astronomy

Dec. 13, 2012 Rise Set
Actual Time 6:41 AM CST 4:33 PM CST
Civil Twilight 6:13 AM CST 5:01 PM CST
Nautical Twilight 5:41 AM CST 5:32 PM CST
Astronomical Twilight 5:11 AM CST 6:03 PM CST
Moon 6:49 AM CST (12/13) 5:14 PM CST (12/13)
Length of Visible Light 10h 48m
Length of Day
9h 52m
New Moon, 0% of the Moon is Illuminated
Dec 13
New Moon
Dec 19
First Quarter
Dec 28
Full
Jan 4
Last Quarter
Jan 11
New

Hourly Weather History & Observations

Time (CST) Temp. Dew Point Humidity Pressure Visibility Wind Dir Wind Speed Gust Speed Precip Events Conditions
12:15 AM 32.0 °F 26.6 °F 80% 30.27 in 10.0 mi Calm Calm - N/A   Mostly Cloudy
12:35 AM 32.0 °F 26.6 °F 80% 30.28 in 10.0 mi Calm Calm - N/A   Scattered Clouds
12:55 AM 32.0 °F 26.6 °F 80% 30.29 in 10.0 mi Calm Calm - N/A   Mostly Cloudy
1:15 AM 32.0 °F 28.4 °F 87% 30.30 in 10.0 mi Calm Calm - N/A   Overcast
1:35 AM 32.0 °F 28.4 °F 87% 30.29 in 10.0 mi Calm Calm - N/A   Overcast
1:55 AM 32.0 °F 26.6 °F 80% 30.30 in 10.0 mi Calm Calm - N/A   Overcast
2:15 AM 32.0 °F 26.6 °F 80% 30.30 in 10.0 mi Calm Calm - N/A   Scattered Clouds
2:35 AM 32.0 °F 28.4 °F 87% 30.30 in 10.0 mi Calm Calm - N/A   Scattered Clouds
2:55 AM 32.0 °F 28.4 °F 87% 30.29 in 10.0 mi Calm Calm - N/A   Clear
3:15 AM 32.0 °F 26.6 °F 80% 30.29 in 10.0 mi Calm Calm - N/A   Clear
3:35 AM 32.0 °F 26.6 °F 80% 30.29 in 10.0 mi Calm Calm - N/A   Clear
3:55 AM 30.2 °F 26.6 °F 86% 30.30 in 10.0 mi Calm Calm - N/A   Clear
4:15 AM 30.2 °F 26.6 °F 86% 30.30 in 10.0 mi Calm Calm - N/A   Clear
4:35 AM 30.2 °F 26.6 °F 86% 30.31 in 10.0 mi Calm Calm - N/A   Clear
4:55 AM 30.2 °F 26.6 °F 86% 30.31 in 10.0 mi Calm Calm - N/A   Clear
5:15 AM 30.2 °F 26.6 °F 86% 30.31 in 10.0 mi Calm Calm - N/A   Clear
5:35 AM 30.2 °F 26.6 °F 86% 30.33 in 10.0 mi Calm Calm - N/A   Clear
5:55 AM 30.2 °F 26.6 °F 86% 30.33 in 10.0 mi Calm Calm - N/A   Clear
6:15 AM 30.2 °F 26.6 °F 86% 30.33 in 10.0 mi Calm Calm - N/A   Clear
6:35 AM 28.4 °F 26.6 °F 93% 30.34 in 10.0 mi Calm Calm - N/A   Clear
6:55 AM 28.4 °F 26.6 °F 93% 30.34 in 10.0 mi Calm Calm - N/A   Clear
7:15 AM 28.4 °F 26.6 °F 93% 30.35 in 10.0 mi Calm Calm - N/A   Clear
7:35 AM 30.2 °F 26.6 °F 86% 30.35 in 10.0 mi Calm Calm - N/A   Clear
7:55 AM 32.0 °F 28.4 °F 87% 30.35 in 10.0 mi Calm Calm - N/A   Clear
8:15 AM 33.8 °F 28.4 °F 81% 30.36 in 10.0 mi Calm Calm - N/A   Clear
8:35 AM 37.4 °F 28.4 °F 70% 30.36 in 10.0 mi Calm Calm - N/A   Clear
8:55 AM 39.2 °F 28.4 °F 65% 30.36 in 10.0 mi Calm Calm - N/A   Clear
9:15 AM 42.8 °F 30.2 °F 61% 30.37 in 10.0 mi Calm Calm - N/A   Clear
9:35 AM 44.6 °F 30.2 °F 57% 30.37 in 10.0 mi Calm Calm - N/A   Clear
9:55 AM 44.6 °F 30.2 °F 57% 30.36 in 10.0 mi Calm Calm - N/A   Clear
10:15 AM 46.4 °F 32.0 °F 57% 30.36 in 10.0 mi Calm Calm - N/A   Clear
10:35 AM 50.0 °F 32.0 °F 50% 30.36 in 10.0 mi Calm Calm - N/A   Clear
10:55 AM 50.0 °F 32.0 °F 50% 30.35 in 10.0 mi Calm Calm - N/A   Clear
11:15 AM 50.0 °F 32.0 °F 50% 30.34 in 10.0 mi Calm Calm - N/A   Clear
11:35 AM 51.8 °F 32.0 °F 47% 30.34 in 10.0 mi Calm Calm - N/A   Clear
11:55 AM 51.8 °F 32.0 °F 47% 30.33 in 10.0 mi Calm Calm - N/A   Clear
12:15 PM 53.6 °F 32.0 °F 44% 30.32 in 10.0 mi Calm Calm - N/A   Clear
12:35 PM 53.6 °F 32.0 °F 44% 30.31 in 10.0 mi Calm Calm - N/A   Clear
12:55 PM 55.4 °F 23.0 °F 29% 30.30 in 10.0 mi Calm Calm - N/A   Clear
1:15 PM 55.4 °F 17.6 °F 23% 30.29 in 10.0 mi Calm Calm - N/A   Clear
1:35 PM 57.2 °F 21.2 °F 25% 30.29 in 10.0 mi Calm Calm - N/A   Clear
1:55 PM 57.2 °F 21.2 °F 25% 30.29 in 10.0 mi Calm Calm - N/A   Clear
2:15 PM 57.2 °F 15.8 °F 20% 30.29 in 10.0 mi Calm Calm - N/A   Clear
2:35 PM 57.2 °F 19.4 °F 23% 30.28 in 10.0 mi Calm Calm - N/A   Clear
2:55 PM 57.2 °F 19.4 °F 23% 30.28 in 10.0 mi Calm Calm - N/A   Clear
3:15 PM 57.2 °F 23.0 °F 27% 30.27 in 10.0 mi Calm Calm - N/A   Clear
3:35 PM 55.4 °F 24.8 °F 31% 30.27 in 10.0 mi Calm Calm - N/A   Clear
3:55 PM 55.4 °F 23.0 °F 29% 30.27 in 10.0 mi Calm Calm - N/A   Clear
4:15 PM 53.6 °F 28.4 °F 38% 30.27 in 10.0 mi Calm Calm - N/A   Clear
4:35 PM 50.0 °F 30.2 °F 47% 30.27 in 10.0 mi Calm Calm - N/A   Clear
6:15 PM 37.4 °F 32.0 °F 81% 30.29 in 10.0 mi Calm Calm - N/A   Clear
7:15 PM 33.8 °F 30.2 °F 87% 30.31 in 10.0 mi Calm Calm - N/A   Clear
7:35 PM 33.8 °F 30.2 °F 87% 30.31 in 10.0 mi Calm Calm - N/A   Clear
7:55 PM 32.0 °F 30.2 °F 93% 30.31 in 10.0 mi Calm Calm - N/A   Clear
8:15 PM 32.0 °F 30.2 °F 93% 30.32 in 10.0 mi Calm Calm - N/A   Clear
8:35 PM 32.0 °F 28.4 °F 87% 30.32 in 10.0 mi Calm Calm - N/A   Clear
8:55 PM 32.0 °F 30.2 °F 93% 30.32 in 10.0 mi Calm Calm - N/A   Clear
9:15 PM 32.0 °F 28.4 °F 87% 30.33 in 10.0 mi Calm Calm - N/A   Clear
9:35 PM 32.0 °F 28.4 °F 87% 30.32 in 10.0 mi Calm Calm - N/A   Clear
9:55 PM 32.0 °F 28.4 °F 87% 30.32 in 10.0 mi Calm Calm - N/A   Clear
10:15 PM 30.2 °F 28.4 °F 93% 30.32 in 10.0 mi Calm Calm - N/A   Clear
10:35 PM 30.2 °F 28.4 °F 93% 30.32 in 10.0 mi Calm Calm - N/A   Clear
10:55 PM 30.2 °F 28.4 °F 93% 30.31 in 10.0 mi Calm Calm - N/A   Clear
11:15 PM 30.2 °F 28.4 °F 93% 30.32 in 10.0 mi Calm Calm - N/A   Clear
11:35 PM 30.2 °F 28.4 °F 93% 30.32 in 10.0 mi Calm Calm - N/A   Clear
11:55 PM 30.2 °F 26.6 °F 86% 30.33 in 10.0 mi Calm Calm - N/A   Clear